Погода в Боровском

Казахстан     53°47′42″N   64°11′00″E
темп.,
°C
ветер,
м/с
пор.,
м/с
влажн.,
%
обл.,
%
осадки,
мм/ч
давл.,
гПа
погр.,
м
27 июля, вт
вт2700:00+13сз336160 0.0 101839
03:00+14з3452100 0.0 101793
06:00+12з36649 0.0 1017102
09:00+15з465979 0.0 1017312
12:00+18з574922 0.0 10151075
15:00+20з6844100 0.0 10141960
18:00+21з684496 0.0 10131630
21:00+17з3561100 0.0 101282
28 июля, ср
ср2800:00+15зюз48615 0.0 1012123
03:00+13зюз476840 0.0 1011114
06:00+12з358085 0.2 101190
09:00+16з5676100 0.3 1011450
12:00+19зсз345998 1.3 10111053
15:00+20сз4546100 0.1 10101415
18:00+20ссз574668 0.1 10101553
21:00+16ссз24643 0.1 101195
29 июля, чт
чт2900:00+12сз33673 0.1 101224
03:00+11сз22705 0.0 101218
06:00+10зсз34760 0.0 101349
09:00+14сз35625 0.0 1013382
12:00+19зсз58475 0.0 10131648
15:00+22зсз573812 0.0 10132320
18:00+22зсз45365 0.0 10122345
21:00+18зюз225212 0.0 101216
30 июля, пт
пт3000:00+16ю4452100 0.0 101240
03:00+15ю5115678 0.0 1011179
06:00+15ююз51353100 0.0 1010225
09:00+17з51349100 0.0 1010477
12:00+14юв41186100 3.3 1008368
15:00+19ююз6156497 0.3 1005549
18:00+24з51051100 0.4 1003246
21:00+21зсз3379100 0.1 100537
31 июля, сб
сб3100:00+18зюз3388100 0.1 100725
03:00+17з348779 0.0 100760
06:00+16з349065 0.1 100862
09:00+21з47722 0.0 1009351
12:00+26з45540 0.0 10091245
15:00+28з574315 0.0 10092309
18:00+29сз464074 0.0 10092234
21:00+24зсз11600 0.0 101011